Change the Weather History Date:

Thursday, March 20, 2014

  Actual Average (KPAH) Record (KPAH)
Temperature  
Mean Temperature 44 °F 50 °F  
Max Temperature 61 °F 60 °F 83 °F (1948)
Min Temperature 28 °F 39 °F 20 °F (1965)
Degree Days  
Heating Degree Days 20 16  
Month to date heating degree days 371  
Since 1 July heating degree days 3667  
Cooling Degree Days 0 0  
Month to date cooling degree days 0  
Year to date cooling degree days 0  
Moisture  
Dew Point 28 °F    
Average Humidity 57    
Maximum Humidity 100    
Minimum Humidity 22    
Precipitation  
Precipitation 0.00 in 0.12 in 2.26 in (1955)
Month to date precipitation 2.41  
Year to date precipitation 10.00  
Snow  
Snow 0.00 in 0.00 in 0.20 in (1996)
Month to date snowfall 0.5  
Since 1 July snowfall 9.0  
Snow Depth -    
Sea Level Pressure  
Sea Level Pressure 30.12 in    
Wind  
Wind Speed 3 mph (SSW)    
Max Wind Speed 13 mph    
Max Gust Speed 17 mph    
Visibility 8 miles    
Events      
T = Trace of Precipitation, MM = Missing Value Source: NWS Daily Summary

Daily Weather History Graph

Daily Weather History Graph

Search for Another Location

Airport or City:

Trip Planner

Search our weather history database for the weather conditions in past years. The results will help you decide how hot, cold, wet, or windy it might be!

Date:

Astronomy

Mar. 20, 2014 Rise Set
Actual Time 6:58 AM CDT 7:06 PM CDT
Civil Twilight 6:32 AM CDT 7:32 PM CDT
Nautical Twilight 6:02 AM CDT 8:03 PM CDT
Astronomical Twilight 5:31 AM CDT 8:34 PM CDT
Moon 11:20 PM CDT (3/20) 9:09 AM CDT (3/20)
Length of Visible Light 13h 00m
Length of Day
12h 08m
Waning Gibbous, 84% of the Moon is Illuminated
Mar 20
Waning Gibbous
Mar 23
Last Quarter
Mar 30
New
Apr 7
First Quarter
Apr 15
Full

Hourly Weather History & Observations

Time (CDT) Temp. Windchill Dew Point Humidity Pressure Visibility Wind Dir Wind Speed Gust Speed Precip Events Conditions
12:15 AM 37.2 °F - 31.8 °F 81% 30.16 in 10.0 mi Calm Calm - N/A   Clear
12:35 AM 36.5 °F - 31.5 °F 82% 30.16 in 10.0 mi Calm Calm - N/A   Clear
12:55 AM 35.8 °F - 32.0 °F 86% 30.16 in 7.0 mi Calm Calm - N/A   Clear
1:15 AM 35.2 °F - 31.3 °F 85% 30.16 in 7.0 mi Calm Calm - N/A   Clear
1:35 AM 34.7 °F - 32.5 °F 92% 30.16 in 5.0 mi Calm Calm - N/A   Clear
1:55 AM 33.8 °F - 32.0 °F 93% 30.16 in 5.0 mi Calm Calm - N/A   Clear
2:15 AM 34.0 °F - 32.9 °F 96% 30.17 in 5.0 mi Calm Calm - N/A   Clear
2:35 AM 33.8 °F - 32.4 °F 94% 30.16 in 5.0 mi Calm Calm - N/A   Clear
2:55 AM 33.4 °F - 32.0 °F 94% 30.16 in 5.0 mi Calm Calm - N/A   Clear
3:15 AM 33.1 °F - 32.0 °F 96% 30.15 in 5.0 mi Calm Calm - N/A   Clear
3:35 AM 32.4 °F - 31.8 °F 98% 30.15 in 4.0 mi Calm Calm - N/A   Clear
3:55 AM 32.0 °F - 31.6 °F 99% 30.15 in 5.0 mi Calm Calm - N/A   Clear
4:15 AM 32.0 °F - 31.5 °F 98% 30.15 in 2.5 mi Calm Calm - N/A   Clear
4:35 AM 31.8 °F - 31.6 °F 99% 30.15 in 2.0 mi Calm Calm - N/A   Clear
4:55 AM 31.8 °F - 31.8 °F 100% 30.15 in 2.0 mi Calm Calm - N/A   Clear
5:15 AM 30.6 °F - 30.4 °F 99% 30.16 in 2.5 mi Calm Calm - N/A   Clear
5:35 AM 30.2 °F - 30.2 °F 100% 30.16 in 1.8 mi Calm Calm - N/A   Mist
5:55 AM 30.4 °F - 30.4 °F 100% 30.16 in 2.5 mi Calm Calm - N/A   Clear
6:15 AM 29.8 °F - 29.8 °F 100% 30.17 in 2.5 mi Calm Calm - N/A   Clear
6:35 AM 28.9 °F - 28.9 °F 100% 30.16 in 3.0 mi Calm Calm - N/A   Clear
6:55 AM 29.3 °F - 29.3 °F 100% 30.17 in 2.5 mi Calm Calm - N/A   Clear
7:20 AM 29.3 °F - 29.3 °F 100% 30.18 in 2.0 mi Calm Calm - N/A   Clear
7:35 AM 30.0 °F - 30.0 °F 100% 30.18 in 2.5 mi Calm Calm - N/A   Clear
7:55 AM 31.1 °F - 31.1 °F 100% 30.18 in 3.0 mi Calm Calm - N/A   Clear
8:15 AM 33.1 °F - 33.1 °F 100% 30.18 in 3.0 mi Calm Calm - N/A   Clear
8:35 AM 36.5 °F - 36.0 °F 98% 30.18 in 4.0 mi Calm Calm - N/A   Clear
8:55 AM 40.1 °F - 36.1 °F 86% 30.18 in 5.0 mi Calm Calm - N/A   Clear
9:15 AM 43.3 °F 41.7 °F 33.8 °F 69% 30.19 in 10.0 mi South 3.5 mph - N/A   Clear
9:35 AM 45.3 °F 43.0 °F 32.5 °F 61% 30.19 in 10.0 mi SSW 4.6 mph - N/A   Clear
9:55 AM 47.5 °F - 32.5 °F 56% 30.19 in 10.0 mi South 4.6 mph - N/A   Clear
10:15 AM 48.7 °F - 32.5 °F 54% 30.19 in 10.0 mi SSW 4.6 mph - N/A   Clear
10:35 AM 50.4 °F - 32.9 °F 51% 30.19 in 10.0 mi South 3.5 mph - N/A   Clear
10:55 AM 52.2 °F - 32.0 °F 46% 30.18 in 10.0 mi South 4.6 mph - N/A   Clear
11:15 AM 53.4 °F - 31.3 °F 43% 30.18 in 10.0 mi SSW 5.8 mph - N/A   Clear
11:35 AM 54.5 °F - 29.7 °F 39% 30.18 in 10.0 mi WSW 8.1 mph - N/A   Clear
11:55 AM 55.0 °F - 28.9 °F 37% 30.17 in 10.0 mi WSW 4.6 mph - N/A   Clear
12:15 PM 56.3 °F - 27.7 °F 33% 30.16 in 10.0 mi SSW 5.8 mph - N/A   Clear
12:35 PM 57.4 °F - 25.7 °F 30% 30.15 in 10.0 mi SSW 11.5 mph - N/A   Clear
12:55 PM 57.7 °F - 24.8 °F 28% 30.14 in 10.0 mi SW 9.2 mph - N/A   Clear
1:15 PM 59.0 °F - 25.9 °F 28% 30.13 in 10.0 mi SW 10.4 mph - N/A   Clear
1:35 PM 59.4 °F - 26.6 °F 29% 30.13 in 10.0 mi WSW 12.7 mph - N/A   Clear
1:55 PM 59.4 °F - 26.6 °F 29% 30.11 in 10.0 mi SSW 8.1 mph - N/A   Clear
2:15 PM 60.3 °F - 24.6 °F 26% 30.10 in 10.0 mi WSW 6.9 mph - N/A   Clear
2:35 PM 60.8 °F - 25.0 °F 25% 30.10 in 10.0 mi WSW 11.5 mph 17.3 mph N/A   Clear
2:55 PM 60.8 °F - 24.6 °F 25% 30.09 in 10.0 mi WSW 9.2 mph - N/A   Clear
3:15 PM 61.3 °F - 23.7 °F 24% 30.09 in 10.0 mi SW 11.5 mph - N/A   Clear
3:35 PM 61.2 °F - 23.5 °F 24% 30.08 in 10.0 mi SW 10.4 mph - N/A   Clear
3:55 PM 61.5 °F - 23.0 °F 23% 30.08 in 10.0 mi WSW 8.1 mph - N/A   Clear
4:15 PM 61.7 °F - 23.7 °F 23% 30.07 in 10.0 mi WSW 10.4 mph - N/A   Clear
4:35 PM 61.2 °F - 22.1 °F 22% 30.06 in 10.0 mi SSW 5.8 mph - N/A   Clear
4:55 PM 61.7 °F - 23.2 °F 23% 30.05 in 10.0 mi West 6.9 mph - N/A   Clear
5:15 PM 61.5 °F - 24.6 °F 24% 30.05 in 10.0 mi SSW 9.2 mph - N/A   Clear
5:35 PM 61.0 °F - 24.3 °F 25% 30.05 in 10.0 mi SSW 6.9 mph - N/A   Clear
5:55 PM 60.8 °F - 24.1 °F 25% 30.05 in 10.0 mi SSW 9.2 mph - N/A   Clear
6:15 PM 60.1 °F - 23.7 °F 25% 30.05 in 10.0 mi SW 6.9 mph - N/A   Clear
6:35 PM 59.2 °F - 24.3 °F 26% 30.04 in 10.0 mi SSW 5.8 mph - N/A   Clear
6:55 PM 58.1 °F - 25.0 °F 28% 30.03 in 10.0 mi South 8.1 mph - N/A   Clear
7:15 PM 57.0 °F - 24.4 °F 29% 30.03 in 10.0 mi South 5.8 mph - N/A   Clear
7:35 PM 55.6 °F - 25.0 °F 31% 30.03 in 10.0 mi South 6.9 mph - N/A   Clear
7:55 PM 55.6 °F - 24.1 °F 30% 30.03 in 10.0 mi South 5.8 mph - N/A   Clear
8:15 PM 53.4 °F - 24.6 °F 33% 30.04 in 10.0 mi South 4.6 mph - N/A   Clear
8:35 PM 53.6 °F - 23.7 °F 31% 30.05 in 10.0 mi South 3.5 mph - N/A   Clear
8:55 PM 52.0 °F - 24.4 °F 34% 30.04 in 10.0 mi Calm Calm - N/A   Clear
9:15 PM 50.2 °F - 25.5 °F 38% 30.05 in 10.0 mi South 3.5 mph - N/A   Clear
9:35 PM 49.6 °F - 25.3 °F 39% 30.04 in 10.0 mi South 3.5 mph - N/A   Clear
9:55 PM 50.2 °F - 25.2 °F 38% 30.04 in 10.0 mi South 4.6 mph - N/A   Clear
10:15 PM 50.9 °F - 25.2 °F 37% 30.05 in 10.0 mi South 5.8 mph - N/A   Clear
10:35 PM 50.4 °F - 25.9 °F 39% 30.05 in 10.0 mi South 4.6 mph - N/A   Clear
10:55 PM 50.2 °F - 26.2 °F 39% 30.05 in 10.0 mi South 4.6 mph - N/A   Clear
11:15 PM 50.5 °F - 25.5 °F 38% 30.05 in 10.0 mi SSW 3.5 mph - N/A   Clear
11:35 PM 49.8 °F - 25.9 °F 39% 30.05 in 10.0 mi South 3.5 mph - N/A   Clear
11:55 PM 49.6 °F - 25.7 °F 39% 30.05 in 10.0 mi South 3.5 mph - N/A   Clear